"Pseudo-MPEC" for Hz8t1If

Created 2019 Nov 10 16:07:10 UT using Find_Orb

Click here for an explanation of pseudo-MPECs

 
 Astrometry: 
     Hz8t1If !C2019 10 25)WgSUAm[qRJ9niAstrometrys0C3roD'Am8/[vgRlTpy0llkrwvWW84
     Hz8t1If !C2019 10 25E?*Ubq'1;bRcUbxQ)*w]!vGmil?aD;iZyws.hi;+DW*u`hLwiHy6W84
     Hz8t1If !C2019 10 25kkURiJJY_LX\y8DB'_MKp10L.iu-Z@RiMv:wUS$giW%3yaMM2C^3W84
     Hz8t1If !C2019 10 26.89\h#//+\+y3:Rk[AI;U\OhYh!g;)b]`XlJd(UcpJpa+7dFg(pkW84
     Hz8t1If !C2019 10 26b8F)s;g5yMnEw2N-OxWE9]$=)EsfoN.eW'ZxYLd%#v-0L_Aqx8TUW84
     Hz8t1If !C2019 10 268!($qG,Yf=:FVBu_EqF0w++o]C#:Ro;[sf\YEHw9nmpN5E343D:rW84
     Hz8t1If !C2019 10 26PcVsfp\ea/RCCQEtk9redacted;g;h`UjVC5Jo?3K8TujaYSmVvxW84
     Hz8t1If !C2019 10 26!pCo]^79xF*/isY_8mdP!`Ik!\DnmAFH7jqO(.h'ULjxEI7]phqkW84
     Hz8t1If !C2019 10 26='aet\1wMUn^#Ee2K/dqX.)XPNAqEIX0wnutAQix5FwTXHcvsux(W84
     Hz8t1If !C2019 10 26$0XY^TP)#bmTVCOQtrOcrLqPu4H/%PhicGN=Q1t9%NIHWv)*9!0dW84
     Hz8t1If !C2019 10 26+_x2.ak^)Z!*b[tlNyuQ!,,Q6jDkbw``cn!T,_h.iQ%Ks-$n_YEdW84
     Hz8t1If !C2019 10 26j5.\5p3u0vCe*PJr^n#dsN7ZR+se`O*S]fC-Srq)]3la`click*/W84
     Hz8t1If !C2019 10 26cH\l`=DE60_/9jQV_^dX0mtG[@.A$r^LTPfKO2b9KKR;g)LMB6_RW84
     Hz8t1If !C2019 10 26)3ySa_1Yx]hN$9WjUp;#Wn,]uNsZZVmYOu41TfHvoL6LkCXrFi@,W84
     Hz8t1If !C2019 10 26;5SuocB)8v$'-2m//b6E5R62dbX-(3CSfrIP:RBjVIQh=aQ%wvn)W84
     Hz8t1If !C2019 10 26gHO8/2Ww/0c(3mv?6gO9rrVYI60F*n3eW%N48y@@f3p,#7[=0SMCW84
     Hz8t1If !C2019 10 26#=TIH6g,DC[3sf@mRS=^1Ut(eM/b*MSOCp6Pn4e'48mT_a^r12TPW84
     Hz8t1If !C2019 10 26`9jkUxtNujdK8xj@2\gfAg(x/8/`RMywr.uF6Jj!P(S@@Wj`x1hPW84
     Hz8t1If !C2019 10 26kC`^RjYSg+;QRgu-=#`7nJgG5Uw[x7s*7c=j+`GS8h(E_,_wffEjW84
     Hz8t1If !C2019 10 26-lYj:o[3SsQq=\s#]'oL/n1oTb5t.%'_wDSlAFSLqp.jNkKwq[l)W84
     Hz8t1If !C2019 10 26*Fk@@yy!T8xRFEXgke9b6!,dFXam-!wSlqMFqNTcM,/L?v=*iY@DW84
     Hz8t1If !C2019 10 26e^kw/j-0B;Vmh=V(Dc7p\4gfWFaeEmcyV-a@)vwjS;acC+L[UbIBW84
     Hz8t1If !C2019 10 26OZB6\.5)Ki9XPYbRV_v/T^rxiy3ya6AjpZ-LJ6w9P/icqu?0q(e/W84
     Hz8t1If !C2019 10 26U=S.*RI@Mn6kNC=x4nkXZ'O/!:[]YjlPCZu$Irj:Fh2yVZjN8%/BW84
     Hz8t1If !C2019 10 264d\IHo::E7oY3M36EW*EEpDUQ5)in9e\#!,%pto7CN$p;:;sE`r;W84
     Hz8t1If !C2019 10 26_NFN1jBJU$(WdaMd[wX%NAuCnt*fiCn6q9*5q2l6Nt/qVhv7pq2:W84
     Hz8t1If !C2019 10 26e,x,OAe8ZE+e[VQMl%GGir#WI:'@A`fsF:F[,['7FbHwi:#kalceW84
     Hz8t1If !C2019 10 26#2Y^-:ZmZS9vH92Tt9FtUnLDbOiJuSiR?6LJsQ$fM_ZTRZ)-(U,kW84
     Hz8t1If !C2019 10 26^uo3(^?H:Ut1ZHb^4idn)x#[3,Co;O:y$/f-G+/b:]Mt+5X@$vh-W84
     Hz8t1If !C2019 10 26OkCbQf1loLkM[14]CEW'rQfad`?`O'i@J+rj=hered9i0fJAUa^xW84
     Hz8t1If !C2019 10 26,oYXFs0`9K5@:VjF(4cFMR0mV,HD!$947_4dJu#udC5tg5Ux#(*3W84
     Hz8t1If !C2019 10 26P;?R3=-kVB(p0m@_JoJH^D5t!EL$M1kWL1d_NqP_m3UXZO=*DgR(W84
     Hz8t1If !C2019 10 26fBgg)kn:\fGj%P;/5/vDgVs^;=GyliVY0_$Yy`_?b)xlDa'-^%tnW84
     Hz8t1If !C2019 10 26x3co91n+TJ?cBx\7[D@36duqr3vF'N3EwLVFW0pO)4q'PT2R^yi#W84
     Hz8t1If !C2019 10 26N:Oa7uC?/hq5x=G.3vlGnsxldTP=C-l^\SO2PHu?dp\1%J.qKVD#W84
     Hz8t1If !C2019 10 26X6AfA_0NQHe^QQ5S-sj$/]3d._for@,bRC*C(lt*12[bGiB/33K5W84
     Hz8t1If |C2019 10 30J_y2xs:%aDC%AL;07NFTO5v8Q/KVxOowamJ.OA,M!N-'C=K=LU,I807
     Hz8t1If |C2019 10 30m]X?nWHc.dW3DebeKi@yvGwn@H1l#oqUNjI_8gGVDZcw@4@`hqbe807
     Hz8t1If |C2019 10 30e(gPNknDb$L,Mex:fU8!UUxODr62iRQ.4_bcS`%W21_Q0S?F?N!q807
     Hz8t1If |C2019 11 06$yine3FAZ5vx4]$EI5^Uyls8lmmcKm,?X??O;SAO/f@/j0mEc_r\807
     Hz8t1If |C2019 11 06Qd)EMTexplanationlYM$Sl-nEKithy;b._LU*joVLF@UEG/kZ\p807
     Hz8t1If |C2019 11 063NW[M)K!K$gf!nA_^6;075e\\NNq0x*8/@e8kf=o]+58SVR7GG!^807

Station data:
(807) Cerro Tololo Observatory, La Serena  (S30.169136 W70.805900)  Chile.
(W84) Cerro Tololo-DECam  (S30.169597 W70.806420)  Chile. 4.0-m f/2.87
   reflector + CCD.

Orbital elements:  Hz8t1If
   Perihelion 2019 Oct 14.867788 +/- 0.372 TT = 20:49:36 (JD 2458771.367788)
Epoch 2019 Nov  6.0 TT = JDT 2458793.5   Earth MOID: 0.7278   AutoNEOCP
M   5.34706379 +/- 0.13             (J2000 ecliptic)
n   0.24159645 +/- 0.00231          Peri.  223.75329 +/- 0.25
a   2.55314619 +/- 0.0163           Node   134.39607 +/- 0.09
e   0.3506617 +/- 0.00335           Incl.   35.14168 +/- 0.009
P   4.08                   H 19.8   G  0.15   U  8.7  
q 1.65785550 +/- 0.0021    Q 3.44843688 +/- 0.0314
From 42 observations 2019 Oct. 25-Nov. 6; mean residual 0".11
Residuals in arcseconds: 
191025 W84  .00   .09+    191026 W84  .02+  .06-    191026 W84  .05-  .01-    
191025 W84  .05+  .04-    191026 W84  .01-  .00     191026 W84  .06-  .07+    
191025 W84  .01+  .04+    191026 W84  .03-  .04-    191026 W84  .01+  .04+    
191026 W84  .03-  .00     191026 W84  .03+  .02+    191026 W84  .00   .01+    
191026 W84  .04+  .08+    191026 W84  .03-  .00     191026 W84  .07+  .02-    
191026 W84  .03+  .03+    191026 W84  .04+  .02-    191026 W84  .06+  .05-    
191026 W84  .06-  .04+    191026 W84  .07-  .02-    191026 W84  .04+  .02+    
191026 W84  .08-  .10-    191026 W84  .01+  .04-    191026 W84  .01+  .01+    
191026 W84  .00   .03-    191026 W84  .00   .05+    191030 807  .06+  .03+    
191026 W84  .05+  .06-    191026 W84  .01-  .04+    191030 807  .04-  .01-    
191026 W84  .03+  .00     191026 W84  .01+  .02-    191030 807  .02-  .03-    
191026 W84  .00   .04-    191026 W84  .00   .04-    191106 807  .38-  .30+    
191026 W84  .04-  .02+    191026 W84  .03-  .03+    191106 807  .26+  .69-    
191026 W84  .04+  .02-    191026 W84  .04-  .01+    191106 807  .13+  .39+    

Ephemerides (geocentric):
Date (UTC) HH   RA              Dec         delta   r     elong  mag " sig PA
---- -- -- --  -------------   -----------  ------ ------ -----  --- ---- ---
2019 11 10 16  23 07 21.767   -50 23 26.95  1.2575 1.6713  95.3 22.9 .315 123
2019 11 10 17  23 07 26.401   -50 22 59.84  1.2579 1.6713  95.3 22.9 .318 123
2019 11 10 18  23 07 31.036   -50 22 32.70  1.2582 1.6714  95.3 22.9 .321 123
2019 11 10 19  23 07 35.673   -50 22 05.52  1.2585 1.6714  95.3 22.9 .324 123
2019 11 10 20  23 07 40.312   -50 21 38.30  1.2589 1.6715  95.3 22.9 .327 123
2019 11 10 21  23 07 44.953   -50 21 11.05  1.2592 1.6715  95.2 22.9 .330 123
2019 11 10 22  23 07 49.596   -50 20 43.77  1.2595 1.6715  95.2 22.9 .333 123
2019 11 10 23  23 07 54.240   -50 20 16.45  1.2599 1.6716  95.2 22.9 .336 123
2019 11 11 00  23 07 58.886   -50 19 49.09  1.2602 1.6716  95.2 22.9 .339 123
2019 11 11 01  23 08 03.534   -50 19 21.70  1.2606 1.6717  95.2 22.9 .342 122
2019 11 11 02  23 08 08.184   -50 18 54.27  1.2609 1.6717  95.2 22.9 .345 122
2019 11 11 03  23 08 12.835   -50 18 26.81  1.2612 1.6718  95.1 22.9 .348 122
2019 11 11 04  23 08 17.489   -50 17 59.31  1.2616 1.6718  95.1 22.9 .351 122
2019 11 11 05  23 08 22.144   -50 17 31.78  1.2619 1.6718  95.1 22.9 .354 122
2019 11 11 06  23 08 26.800   -50 17 04.21  1.2622 1.6719  95.1 22.9 .357 122
2019 11 11 07  23 08 31.459   -50 16 36.60  1.2626 1.6719  95.1 22.9 .360 122
2019 11 11 08  23 08 36.119   -50 16 08.97  1.2629 1.6720  95.1 22.9 .363 122
2019 11 11 09  23 08 40.781   -50 15 41.29  1.2633 1.6720  95.0 22.9 .366 122
2019 11 11 10  23 08 45.445   -50 15 13.58  1.2636 1.6721  95.0 22.9 .369 122
2019 11 11 11  23 08 50.110   -50 14 45.83  1.2639 1.6721  95.0 22.9 .372 121
2019 11 11 12  23 08 54.778   -50 14 18.05  1.2643 1.6721  95.0 22.9 .375 121
2019 11 11 13  23 08 59.447   -50 13 50.24  1.2646 1.6722  95.0 22.9 .378 121
2019 11 11 14  23 09 04.117   -50 13 22.39  1.2649 1.6722  94.9 22.9 .381 121
2019 11 11 15  23 09 08.790   -50 12 54.50  1.2653 1.6723  94.9 22.9 .384 121
2019 11 11 16  23 09 13.464   -50 12 26.58  1.2656 1.6723  94.9 22.9 .388 121
2019 11 11 17  23 09 18.140   -50 11 58.62  1.2660 1.6724  94.9 22.9 .391 121
2019 11 11 18  23 09 22.817   -50 11 30.63  1.2663 1.6724  94.9 22.9 .394 121
2019 11 11 19  23 09 27.497   -50 11 02.60  1.2666 1.6724  94.9 22.9 .397 121
2019 11 11 20  23 09 32.178   -50 10 34.54  1.2670 1.6725  94.8 22.9 .400 121
2019 11 11 21  23 09 36.860   -50 10 06.44  1.2673 1.6725  94.8 22.9 .403 120
2019 11 11 22  23 09 41.545   -50 09 38.31  1.2676 1.6726  94.8 22.9 .406 120
2019 11 11 23  23 09 46.231   -50 09 10.14  1.2680 1.6726  94.8 22.9 .410 120
2019 11 12 00  23 09 50.919   -50 08 41.94  1.2683 1.6727  94.8 22.9 .413 120
2019 11 12 01  23 09 55.608   -50 08 13.70  1.2687 1.6727  94.8 22.9 .416 120
2019 11 12 02  23 10 00.299   -50 07 45.43  1.2690 1.6727  94.7 22.9 .419 120
2019 11 12 03  23 10 04.992   -50 07 17.12  1.2693 1.6728  94.7 22.9 .422 120
2019 11 12 04  23 10 09.687   -50 06 48.78  1.2697 1.6728  94.7 22.9 .425 120
2019 11 12 05  23 10 14.383   -50 06 20.40  1.2700 1.6729  94.7 22.9 .429 120
2019 11 12 06  23 10 19.081   -50 05 51.99  1.2703 1.6729  94.7 22.9 .432 119
2019 11 12 07  23 10 23.780   -50 05 23.55  1.2707 1.6730  94.7 22.9 .435 119
2019 11 12 08  23 10 28.482   -50 04 55.07  1.2710 1.6730  94.6 22.9 .438 119
2019 11 12 09  23 10 33.185   -50 04 26.55  1.2713 1.6731  94.6 22.9 .442 119
2019 11 12 10  23 10 37.889   -50 03 58.00  1.2717 1.6731  94.6 22.9 .445 119
2019 11 12 11  23 10 42.595   -50 03 29.41  1.2720 1.6731  94.6 22.9 .448 119
2019 11 12 12  23 10 47.303   -50 03 00.79  1.2724 1.6732  94.6 22.9 .451 119
2019 11 12 13  23 10 52.013   -50 02 32.14  1.2727 1.6732  94.6 22.9 .455 119
2019 11 12 14  23 10 56.724   -50 02 03.45  1.2730 1.6733  94.5 22.9 .458 119
2019 11 12 15  23 11 01.437   -50 01 34.72  1.2734 1.6733  94.5 22.9 .461 119